Orbital Elements at Epoch 2459200.5 (2020-Dec-17.0) TDB
Reference: JPL 20 (heliocentric ecliptic J2000)
Element | Value | Uncertainty (1-sigma) | Units |
e | .3160741085690132 | 3.6942e-08 | |
a | 3.15001488901066 | 2.3433e-08 | au |
q | 2.154376740987497 | 1.2647e-07 | au |
i | 11.25483954332507 | 6.7033e-06 | deg |
node | 346.5614508994747 | 1.7571e-05 | deg |
peri | 72.79632471664407 | 2.1825e-05 | deg |
M | 340.3622212182543 | 8.8219e-06 | deg |
tp | 2459311.892820191676 (2021-Apr-07.39282019) | 4.9855e-05 | TDB |
period | 2042.054537567124 5.59 | 2.2786e-05 6.238e-08 | d yr |
n | .1762930388866592 | 1.9672e-09 | deg/d |
Q | 4.145653037033824 | 3.0839e-08 | au |
|
| | Orbit Determination Parameters
Additional Information
|